Location: ????????
(55.1591°N, 39.1782°E)
Time: 13:51:44
(UTC+00:00)

Cosmos 1743 Rocket - Pass Details

Date: 14 April 2024
Orbit: 601 x 629 km, 82.6° (Epoch: 23 May)

Event Time Altitude Azimuth Distance (km) Brightness Sun altitude
Rises 00:22:16 0° 346° (NNW) 2,884 7.4 -15.4°
Reaches altitude 10° 00:24:30 10° 344° (NNW) 1,971 6.5 -15.1°
Maximum altitude 00:28:50 70° 262° (W) 649 3.4 -14.7°
Enters shadow 00:32:54 11° 179° (S) 1,859 5.6 -14.2°
